Miscellaneous Local Product
Issued by NWS Hastings, NE

Home | Current Version | Previous Version | Graphics & Text | Print | Product List | Glossary On
Versions: 1 2 3 4 5 6 7 8 9 10 11 12 13 14 15 16 17 18 19 20 21 22 23 24 25 26 27 28 29 30 31 32 33 34 35 36 37 38 39 40 41 42 43 44 45 46 47 48 49 50
000
AXUS43 KGID 241402
MISGRI

GID CWA HOURLY WEATHER ROUNDUP
NATIONAL WEATHER SERVICE HASTINGS NE
900 AM CDT MON JUL 24 2017

NOTE: "FAIR" INDICATES FEW OR NO CLOUDS BELOW 12,000 FEET WITH NO
SIGNIFICANT WEATHER AND/OR OBSTRUCTIONS TO VISIBILITY.

...SOUTH CENTRAL NEBRASKA...

CITY           SKY/WX    TMP DP  RH WIND       PRES   REMARKS
GRAND ISLAND   SUNNY     71  64  78 SE13      30.04S
HASTINGS       SUNNY     72  61  68 SE14      30.05S
KEARNEY        SUNNY     72  63  73 S14       30.04S
ORD            SUNNY     71  59  65 S10       30.02S
YORK           SUNNY     68  64  88 S9        30.05S
AURORA         SUNNY     69  65  87 SE9       30.04F
LEXINGTON      SUNNY     73  64  73 SE8       30.03F
HOLDREGE       SUNNY     71  63  76 SE10      30.04S
HEBRON         SUNNY     74  64  70 SE8       30.03S

...NEBRASKA PANHANDLE...

CITY           SKY/WX    TMP DP  RH WIND       PRES   REMARKS
CHADRON        CLOUDY    81  56  42 S15       29.91F
ALLIANCE       SUNNY     78  60  53 S20G25    29.98F
SCOTTSBLUFF    SUNNY     80  58  46 SE5       29.98S
SIDNEY         SUNNY     77  60  55 SW21G30   30.05S

...WESTERN AND NORTH CENTRAL NEBRASKA...

CITY           SKY/WX    TMP DP  RH WIND       PRES   REMARKS
VALENTINE      SUNNY     75  60  59 S14       29.97F
AINSWORTH      SUNNY     73  61  65 S20G25    29.99S
ONEILL         SUNNY     70  63  79 S12       30.02F
BROKEN BOW     SUNNY     73  61  65 S12       30.03S
IMPERIAL       SUNNY     77  60  55 S9        30.04R
NORTH PLATTE   SUNNY     72  66  81 SE8       30.02S
MCCOOK         SUNNY     70  66  87 SE3       30.03S FOG

...EASTERN NEBRASKA...

CITY           SKY/WX    TMP DP  RH WIND       PRES   REMARKS
NORFOLK        MOSUNNY   69  59  70 SE10      30.03F
SO SIOUX CITY  SUNNY     67  62  84 SE6       30.05R
TEKAMAH        SUNNY     69  61  75 SE3       30.04S
COLUMBUS       SUNNY     69  62  78 SE8       30.05S
ALBION         SUNNY     69  62  80 SE8       30.04S
OMAHA EPPLEY   MOSUNNY   72  61  68 E6        30.04S
MILLARD        MOSUNNY   75  62  65 SE7       30.04S
LINCOLN        SUNNY     72  62  71 SE8       30.05R
NEBRASKA CITY  SUNNY     71  66  85 E3        30.04S
BEATRICE       SUNNY     73  64  74 SE7       30.04S
FALLS CITY     SUNNY     72  65  78 E5        30.03R

...NORTHERN KANSAS...

CITY           SKY/WX    TMP DP  RH WIND       PRES   REMARKS
GOODLAND       SUNNY     76  64  66 SW14      30.07S
HILL CITY      SUNNY     72  67  84 SE3       30.04R
NORTON         SUNNY     73  63  68 E6        30.03S
PHILLIPSBURG   SUNNY     73  66  78 E7        30.03S
SMITH CENTER   SUNNY     73  64  73 E10       30.03S
HAYS             N/A     76  65  68 CALM      30.03R
RUSSELL        SUNNY     79  66  64 CALM      30.01R
CONCORDIA      SUNNY     74  66  76 E10       30.02S
SALINA         SUNNY     79  72  79 SE5       30.01R
TOPEKA         SUNNY     76  68  76 E8        30.02R



USA.gov is the U.S. government's official web portal to all federal, state and local government web resources and services.